This demonstration page uses our WeatherBlox Daily Observations layout. Learn more.

Left ArrowRight Arrow

Hourly Observations for December 3, 2019

Temp ( °F °C ) Dew Point ( °F °C ) Humidity (%) Winds ( mph kmh ) Pressure ( in mb ) Visibility ( mi km ) Precip ( " mm )
12:51 am 00:51 Clear 41 5 37 2.8 86 86 E 3 6 30.11 1020 10 16 N/A
1:51 am 01:51 Clear 38 3.3 36 2.2 93 93 NNE 5 7 30.12 1020 10 16 N/A
2:51 am 02:51 Clear 37 2.8 35 1.7 93 93 E 5 7 30.12 1020 10 16 N/A
3:51 am 03:51 Clear 37 2.8 35 1.7 93 93 NW 3 6 30.11 1020 10 16 N/A
4:51 am 04:51 Clear 35 1.7 34 1.1 96 96 WNW 3 6 30.11 1020 10 16 N/A
5:51 am 05:51 Clear 34 1.1 32 undefined 92 92 N N/A 30.14 1021 10 16 N/A
6:51 am 06:51 Clear 35 1.7 34 1.1 96 96 NNE 5 7 30.17 1022 10 16 N/A
7:51 am 07:51 Sunny 38 3.3 36 2.2 93 93 E 5 7 30.17 1022 10 16 N/A
8:51 am 08:51 Sunny 42 5.6 37 2.8 82 82 S 6 9 30.19 1022 10 16 N/A
9:51 am 09:51 Sunny 47 8.3 37 2.8 69 69 S 3 6 30.20 1023 10 16 N/A
10:51 am 10:51 Sunny 51 10.6 38 3.3 61 61 N N/A 30.19 1022 10 16 N/A
11:51 am 11:51 Sunny 55 12.8 38 3.3 53 53 S 3 6 30.16 1021 10 16 N/A
12:51 pm 12:51 Sunny 59 15 37 2.8 44 44 N N/A 30.11 1020 10 16 N/A
1:51 pm 13:51 Sunny 61 16.1 38 3.3 43 43 N N/A 30.09 1019 10 16 N/A
2:51 pm 14:51 Sunny 64 17.8 37 2.8 37 37 N N/A 30.06 1018 10 16 N/A
3:51 pm 15:51 Sunny 62 16.7 40 4.4 44 44 SSW 5 7 30.07 1018 10 16 N/A
4:51 pm 16:51 Sunny 61 16.1 44 6.7 54 54 N N/A 30.05 1018 10 16 N/A
5:51 pm 17:51 Clear 55 12.8 44 6.7 67 67 SE 3 6 30.06 1018 10 16 N/A
6:51 pm 18:51 Clear 53 11.7 44 6.7 72 72 ENE 5 7 30.06 1018 10 16 N/A
7:51 pm 19:51 Clear 55 12.8 44 6.7 67 67 N N/A 30.07 1018 10 16 N/A
8:51 pm 20:51 Partly Cloudy 53 11.7 45 7.2 74 74 NNE 5 7 30.06 1018 10 16 N/A
9:51 pm 21:51 Mostly Clear 53 11.7 44 6.7 72 72 N N/A 30.09 1019 10 16 N/A
10:51 pm 22:51 Mostly Clear 54 12.2 44 6.7 69 69 W 5 7 30.08 1019 10 16 N/A
11:51 pm 23:51 Clear 51 10.6 45 7.2 80 80 N N/A 30.07 1018 10 16 N/A

Powered by AerisWeather